TimeAKST,TemperatureF,Dew PointF,Humidity,Sea Level PressureIn,VisibilityMPH,Wind Direction,Wind SpeedMPH,Gust SpeedMPH,PrecipitationIn,Events,Conditions,WindDirDegrees,DateUTC
12:53 AM,30.0,26.1,85,29.75,10.0,NNE,6.9,-,N/A,,Overcast,20,2012-11-10 09:53:00
1:53 AM,30.0,26.1,85,29.74,10.0,NE,5.8,-,N/A,,Overcast,50,2012-11-10 10:53:00
2:39 AM,30.2,26.6,86,29.72,10.0,NE,4.6,-,N/A,,Overcast,50,2012-11-10 11:39:00
3:53 AM,30.0,27.0,88,29.70,9.0,NE,3.5,-,0.00,Snow,Light Snow,50,2012-11-10 12:53:00
4:53 AM,30.0,27.0,88,29.69,10.0,NE,3.5,-,0.00,Snow,Light Snow,40,2012-11-10 13:53:00
5:53 AM,30.0,27.0,88,29.67,10.0,NNE,5.8,-,0.00,,Overcast,20,2012-11-10 14:53:00
6:53 AM,30.0,26.1,85,29.66,10.0,NE,6.9,-,N/A,,Overcast,40,2012-11-10 15:53:00
7:53 AM,30.0,26.1,85,29.64,10.0,NNE,6.9,-,N/A,,Overcast,20,2012-11-10 16:53:00
8:53 AM,30.0,26.1,85,29.64,10.0,NNE,6.9,-,N/A,,Overcast,30,2012-11-10 17:53:00
9:53 AM,30.9,27.0,85,29.62,10.0,NNE,6.9,-,N/A,,Mostly Cloudy,20,2012-11-10 18:53:00
10:53 AM,30.9,27.0,85,29.62,10.0,North,6.9,-,N/A,,Mostly Cloudy,10,2012-11-10 19:53:00
11:53 AM,32.0,28.0,85,29.61,10.0,NNE,5.8,-,N/A,,Mostly Cloudy,20,2012-11-10 20:53:00
12:53 PM,33.1,28.0,82,29.60,10.0,North,4.6,-,N/A,,Mostly Cloudy,10,2012-11-10 21:53:00
1:53 PM,33.1,28.0,82,29.59,10.0,NE,3.5,-,N/A,,Mostly Cloudy,50,2012-11-10 22:53:00
2:53 PM,32.0,28.0,85,29.58,10.0,NE,4.6,-,N/A,,Mostly Cloudy,50,2012-11-10 23:53:00
3:53 PM,33.1,28.0,82,29.57,10.0,NE,3.5,-,N/A,,Mostly Cloudy,40,2012-11-11 00:53:00
4:53 PM,32.0,28.0,85,29.57,10.0,ENE,4.6,-,N/A,,Overcast,60,2012-11-11 01:53:00
5:53 PM,30.0,27.0,88,29.57,10.0,ENE,3.5,-,N/A,,Overcast,70,2012-11-11 02:53:00
6:53 PM,30.0,27.0,88,29.57,10.0,East,3.5,-,N/A,,Overcast,90,2012-11-11 03:53:00
7:53 PM,28.9,26.1,89,29.57,10.0,Calm,Calm,-,N/A,,Mostly Cloudy,0,2012-11-11 04:53:00
8:53 PM,28.9,26.1,89,29.57,10.0,Calm,Calm,-,N/A,,Scattered Clouds,0,2012-11-11 05:53:00
9:53 PM,30.0,26.1,85,29.57,10.0,NE,3.5,-,N/A,,Scattered Clouds,40,2012-11-11 06:53:00
10:53 PM,28.9,26.1,89,29.58,10.0,Calm,Calm,-,N/A,,Partly Cloudy,0,2012-11-11 07:53:00
11:53 PM,28.0,25.0,88,29.58,10.0,Calm,Calm,-,N/A,,Partly Cloudy,0,2012-11-11 08:53:00